Printer-friendly version
Follow the MPC on Twitter Follow the MPC on Facebook The MPC blog
Minor Planet Center

MPEC 2010-K05 : 2010 JH88

The following Minor Planet Electronic Circular may be linked-to from your own Web pages, but must not otherwise be redistributed electronically.

A form allowing access to any MPEC is at the bottom of this page.


Read MPEC 2010-K04 Read MPEC 2010-K06


M.P.E.C. 2010-K05                                Issued 2010 May 16, 15:11 UT

     The Minor Planet Electronic Circulars contain information on unusual
         minor planets and routine data on comets.  They are published
   on behalf of Commission 20 of the International Astronomical Union by the
          Minor Planet Center, Smithsonian Astrophysical Observatory,
                          Cambridge, MA 02138, U.S.A.

             Prepared using the Tamkin Foundation Computer Network

                              MPC@CFA.HARVARD.EDU
       URL http://www.minorplanetcenter.org/iau/mpc.html  ISSN 1523-6714

                                   2010 JH88

Observations:
     K10J88H* C2010 05 14.30740 12 50 29.94 +46 42 01.3          19.1 V EK005703
     K10J88H  C2010 05 14.32113 12 50 31.41 +46 41 00.5          18.7 V EK005703
     K10J88H  C2010 05 14.32806 12 50 32.17 +46 40 28.0          18.9 V EK005703
     K10J88H 1C2010 05 14.36677 12 50 36.86 +46 37 30.1                 EK005658
     K10J88H 1C2010 05 14.36851 12 50 37.06 +46 37 22.2                 EK005658
     K10J88H 1C2010 05 14.37024 12 50 37.25 +46 37 14.4                 EK005658
     K10J88H KC2010 05 14.88566 12 51 35.96 +45 59 02.0          19.1 C EK005J01
     K10J88H KC2010 05 14.89215 12 51 36.67 +45 58 33.6          19.2 C EK005J01
     K10J88H KC2010 05 14.89849 12 51 37.28 +45 58 05.8          18.6 C EK005J01
     K10J88H KC2010 05 14.94439 12 51 42.18 +45 54 40.7                 EK005J41
     K10J88H KC2010 05 14.95287 12 51 43.07 +45 54 03.0          19.2 C EK005J41
     K10J88H KC2010 05 14.96294 12 51 44.14 +45 53 17.7                 EK005J41
     K10J88H KC2010 05 15.08795212 51 58.56 +45 44 10.4          20.2 V EK005H21
     K10J88H KC2010 05 15.09190112 51 58.96 +45 43 53.7          20.5 V EK005H21
     K10J88H KC2010 05 15.09506412 51 59.12 +45 43 40.5          20.2 V EK005H21
     K10J88H  C2010 05 15.18705 12 52 09.08 +45 36 58.1          19.2 V EK005G96
     K10J88H  C2010 05 15.18765 12 52 09.12 +45 36 55.4          19.1 V EK005G96
     K10J88H  C2010 05 15.18824 12 52 09.19 +45 36 52.8          19.3 V EK005G96
     K10J88H  C2010 05 15.19857 12 52 10.13 +45 36 07.3          19.1 R EK005H01
     K10J88H  C2010 05 15.20809 12 52 11.10 +45 35 25.6          18.9 R EK005H01
     K10J88H  C2010 05 15.21562 12 52 11.87 +45 34 52.7          18.8 R EK005H01
     K10J88H  C2010 05 15.22176 12 52 12.23 +45 34 21.4          19.1 V EK005H26
     K10J88H  C2010 05 15.22295 12 52 12.62 +45 34 20.5          18.8 R EK005H01
     K10J88H  C2010 05 15.22412 12 52 12.54 +45 34 11.7          19.1 V EK005H26
     K10J88H  C2010 05 15.22646 12 52 12.72 +45 34 02.1          19.1 V EK005H26
     K10J88H KC2010 05 16.07950 12 53 43.15 +44 32 29.8                 EK005J95
     K10J88H KC2010 05 16.08208 12 53 43.42 +44 32 18.7                 EK005J95
     K10J88H KC2010 05 16.08463 12 53 43.67 +44 32 08.1          19.6 R EK005J95
     K10J88H  C2010 05 16.17669 12 53 54.09 +44 25 44.0          19.2 V EK005G96
     K10J88H  C2010 05 16.17729 12 53 54.13 +44 25 41.6          19.2 V EK005G96
     K10J88H  C2010 05 16.17788 12 53 54.20 +44 25 39.0          19.1 V EK005G96
     K10J88H  C2010 05 16.17847 12 53 54.27 +44 25 36.5          19.1 V EK005G96
     K10J88H  C2010 05 16.22265 12 53 58.52 +44 22 28.5          19.2 V EK005G96
     K10J88H  C2010 05 16.22326 12 53 58.59 +44 22 25.8          19.3 V EK005G96
     K10J88H  C2010 05 16.22390 12 53 58.63 +44 22 23.2          19.3 V EK005G96
     K10J88H  C2010 05 16.22450 12 53 58.70 +44 22 20.7          19.0 V EK005G96
     K10J88H  C2010 05 16.24345 12 54 00.55 +44 21 00.2          19.4 R EK005651
     K10J88H  C2010 05 16.24454 12 54 00.66 +44 20 55.1          19.4 R EK005651
     K10J88H  C2010 05 16.24563 12 54 00.77 +44 20 50.7          19.5 R EK005651
     K10J88H  C2010 05 16.25128 12 54 01.20 +44 20 25.2          18.4 C EK005H10
     K10J88H  C2010 05 16.25289 12 54 01.31 +44 20 19.2                 EK005H10
     K10J88H  C2010 05 16.25477 12 54 01.61 +44 20 10.1          18.9 C EK005H10
     K10J88H  C2010 05 16.26772 12 54 02.83 +44 19 16.1          18.7 R EK005H01
     K10J88H  C2010 05 16.27428 12 54 03.48 +44 18 48.1          19.0 R EK005H01
     K10J88H  C2010 05 16.28251 12 54 04.29 +44 18 13.0          19.0 R EK005H01
     K10J88H  C2010 05 16.29224 12 54 05.23 +44 17 31.4          18.9 R EK005H01

Observer details:
651 Grasslands Observatory, Tucson.  Observer J. E. McGaha.  0.62-m f/5.1
    Newtonian reflector + CCD.
658 National Research Council of Canada.  Observer D. D. Balam.  Measurers
    D. D. Balam, D. Bohlender, D. Monin, E. Chisholm, J. J. Kavelaars.  1.82-m
    Plaskett telescope + CCD.
703 Catalina Sky Survey.  Observer R. A. Kowalski.  Measurers J. D. Ahern,
    E. C. Beshore, A. Boattini, G. J. Garradd, A. R. Gibbs, A. D. Grauer,
    R. E. Hill, R. A. Kowalski, S. M. Larson, R. H. McNaught.  0.68-m Schmidt
    + CCD.
G96 Mt. Lemmon Survey.  Observer A. R. Gibbs.  Measurers J. D. Ahern,
    E. C. Beshore, A. Boattini, G. J. Garradd, A. R. Gibbs, A. D. Grauer,
    R. E. Hill, R. A. Kowalski, S. M. Larson, R. H. McNaught.  1.5-m reflector
    + CCD.
H01 Magdalena Ridge Observatory, Socorro.  Observers W. H. Ryan, E. V. Ryan.
    Measurer W. H. Ryan.  2.4-m f/8.9 reflector + CCD.
H10 Tzec Maun Observatory, Mayhill.  Observers D. Chestnov, A. Novichonok.
    0.36-m f/3.8 Maksutov-Newtonian + CCD.
H21 Astronomical Research Observatory, Westfield.  Observer R. Holmes.
    Measurer H. Devore.  0.81-m f/4.0 astrograph + CCD.
H26 Doc Greiner Research Observatory, Janesvillle.  Observer M. Mills.  0.4-m
    f/8 Schmidt-Cassegrain + CCD.
J01 Observatorio Cielo Profundo, Oviedo.  Observer J. Gonzalez.  0.23-m f/10
    Schmidt-Cassegrain + CCD.
J41 Raheny.  Observer D. Grennan.  0.36-m f/4.6 Schmidt-Cassegrain + CCD.
J95 Great Shefford.  Observer P. Birtwhistle.  0.40-m f/6.0 Schmidt-Cassegrain
    + CCD.

Orbital elements:
2010 JH88                                                Earth MOID = 0.3524 AU
Epoch 2010 July 23.0 TT = JDT 2455400.5                 MPC
M  42.54612              (2000.0)            P               Q
n   0.30701722     Peri.  354.70145     -0.14362917     -0.92571141
a   2.1761770      Node   103.20881     +0.92066052     -0.25467032
e   0.7754100      Incl.   21.06379     +0.36298053     +0.27964516
P   3.21           H   18.0           G   0.15           U   9
Residuals in seconds of arc
100514 703  0.1+  0.8-    100515 G96  0.3+  0.5-    100516 G96  0.2+  0.4-
100514 703  0.1-  0.7+    100515 G96  0.4+  0.6-    100516 G96  0.3+  0.5-
100514 703  0.1-  0.4-    100515 H01  0.0   0.4-    100516 G96  0.1+  0.4-
100514 658  0.8+  0.9-    100515 H01  0.0   0.4-    100516 G96  0.2+  0.3-
100514 658  0.9+  0.9-    100515 H01  0.0   0.2-    100516 651  0.5+  0.3-
100514 658  0.9+  0.9-    100515 H26  0.0   1.6-    100516 651  0.6+  0.7-
100514 J01  0.1-  0.8-    100515 H01  0.1+  0.3-    100516 651  0.6+  0.5-
100514 J01  0.3+  0.5-    100515 H26  0.7+  0.9-    100516 H10  0.3+  1.3-
100514 J01  0.3-  0.3-    100515 H26  0.1+  0.2-    100516 H10  0.2-  0.4-
100514 J41  0.4+  0.2+    100516 J95  0.3+  0.6-    100516 H10  1.1+  1.5-
100514 J41  0.3+  0.0     100516 J95  0.4+  0.6-    100516 H01  0.3+  0.1-
100514 J41  0.4+  0.7-    100516 J95  0.3+  0.2-    100516 H01  0.5+  0.1-
100515 H21  1.4+  1.1-    100516 G96  0.2+  0.4-    100516 H01  0.6+  0.0
100515 H21  1.3+  0.5-    100516 G96  0.0   0.3-    100516 H01  0.5+  0.1-
100515 H21  0.4-  0.2+    100516 G96  0.1+  0.4-
100515 G96  0.5+  0.5-    100516 G96  0.3+  0.4-

Ephemeris:
2010 JH88                a,e,i = 2.18, 0.78, 21                  q = 0.4887
Date    TT    R. A. (2000) Decl.     Delta      r     Elong.  Phase     V
2010 05 14    12 49.92   +47 05.2    0.604    1.313   106.0    47.7    19.3
2010 05 24    13 05.38   +36 09.7    0.739    1.439   109.5    41.6    19.8
2010 06 03    13 16.99   +27 54.1    0.894    1.559   109.4    37.9    20.2
2010 06 13    13 27.44   +21 27.2    1.064    1.674   107.1    35.4    20.7
2010 06 23    13 37.70   +16 15.1    1.248    1.783   103.5    33.7    21.1
2010 07 03    13 48.11   +11 56.4    1.441    1.888    99.0    32.1    21.5
2010 07 13    13 58.81   +08 16.4    1.641    1.989    93.9    30.7    21.9
2010 07 23    14 09.85   +05 06.0    1.846    2.085    88.6    29.1    22.2
2010 08 02    14 21.24   +02 18.7    2.054    2.177    83.0    27.6    22.5
2010 08 12    14 32.96   -00 10.0    2.262    2.266    77.3    25.9    22.7
2010 08 22    14 45.01   -02 23.3    2.469    2.351    71.4    24.1    22.9
2010 09 01    14 57.33   -04 23.2    2.672    2.432    65.5    22.2    23.1

Carl W. Hergenrother         (C) Copyright 2010 MPC           M.P.E.C. 2010-K05

Read MPEC 2010-K04 Read MPEC 2010-K06


MPEC number:

Enter an MPEC number in one of the following forms:

  • 1997-B01 (the full form)
  • J97B01 (the packed version of the full form)
  • B01 (the abbreviated form)

Valid HTML 4.01!